Regional Weather Roundup
Issued by NWS

Home | Current Version | Previous Version | Text Only | Print | Product List | Glossary Off
Versions: 1 2 3 4 5 6 7 8 9 10 11 12 13 14 15 16 17 18 19 20 21 22 23 24 25 26 27 28 29 30 31 32 33 34 35 36 37 38 39 40 41 42 43 44 45 46 47 48 49 50

000
ASUS43 KFSD 231710
RWRSD

WEATHER ROUNDUP FOR SOUTH DAKOTA
NATIONAL WEATHER SERVICE SIOUX FALLS SD
1200 PM CDT SUN JUL 23 2017

NOTE: "FAIR" INDICATES FEW OR NO CLOUDS BELOW 12,000 FEET WITH NO
SIGNIFICANT WEATHER AND/OR OBSTRUCTIONS TO VISIBILITY.


SDZ001>005-009-010-012>017-231800-
NORTHWEST AND NORTH CENTRAL SOUTH DAKOTA

CITY           SKY/WX    TMP DP  RH WIND       PRES   REMARKS
BUFFALO          N/A     85  48  27 S6        30.03F
FAITH            N/A     82  51  34 VRB6      30.09S
MOBRIDGE       SUNNY     78  59  51 N5        30.05S
$$

SDZ012>016-024>037-041>051-057-063-072>074-231800-
SOUTHWEST AND SOUTH CENTRAL SOUTH DAKOTA

CITY           SKY/WX    TMP DP  RH WIND       PRES   REMARKS
RAPID CTY ARPT SUNNY     82  44  26 SE9       30.12S
PIERRE         SUNNY     81  51  35 NE3       30.05S
CUSTER         SUNNY     76  41  28 E17       30.24S
ELLSWORTH AFB  SUNNY     83  45  26 SE9       30.12S
PHILIP         SUNNY     83  52  34 CALM      30.08S
PINE RIDGE     SUNNY     84  51  31 E9        30.12S
SPEARFISH      FAIR      82  46  28 VRB5      30.14S
WINNER         FAIR      83  53  35 MISG      30.08S
$$

SDZ004>011-016>023-039-040-231800-
NORTHEAST SOUTH DAKOTA

CITY           SKY/WX    TMP DP  RH WIND       PRES   REMARKS
ABERDEEN       SUNNY     75  59  57 N10       30.05S
WATERTOWN      MOSUNNY   72  59  63 N17       30.03R
BROOKINGS      MOSUNNY   73  58  59 N15G22    30.03S
SISSETON         N/A     68  60  75 N14       30.03R
$$

SDZ017-020-022-023-036>040-048>070-231800-
SOUTHEAST SOUTH DAKOTA

CITY           SKY/WX    TMP DP  RH WIND       PRES   REMARKS
SIOUX FALLS    MOSUNNY   78  62  57 N10       30.02R
HURON          SUNNY     76  60  57 N15       30.05S
CHAMBERLAIN    SUNNY     83  54  36 NW9       30.06S
MITCHELL       SUNNY     77  60  55 N15       30.05S
YANKTON        SUNNY     81  57  43 NW16      30.02F
$$

ABBREVIATIONS USED IN REMARKS
   TC - TEMPERATURE IN CELSIUS
  WCI - WIND CHILL INDEX
   HX - HEAT INDEX
  VSB - VISIBILITY





USA.gov is the U.S. government's official web portal to all federal, state and local government web resources and services.